User: anonymous   Login
Location: Mentone
(34.5413°N, 85.5351°W)
Time: 02:59:06
(UTC-05:00)
Language:

Uosat F - Orbit

View from above orbital plane
View from above orbital plane
View from above satellite
View from above satellite

Ground track
Ground track

The orbit data is extracted from the following two-line orbital elements,

1 21575U 91050B   17143.56652498 +.00000024 +00000-0 +22142-4 0  9997
2 21575 098.7581 159.3844 0007663 022.4488 337.7033 14.40797650357536
Epoch (UTC): 23 May 2017 13:35:47
Eccentricity: 0.0007663
inclination: 98.7581°
perigee height: 750 km
apogee height: 761 km
right ascension of ascending node: 159.3844°
argument of perigee: 22.4488°
revolutions per day: 14.40797650
mean anomaly at epoch: 337.7033°
orbit number at epoch: 35753

The dashed part of the orbit path shows where the satellite is in the earth's shadow,  

DLR